Location: *
(44.3925°N, 5.4708°E)
Time: 21:47:12
(UTC+00:00)

CZ-2C R/B - Pass Details

Date: 18 September 2019
Orbit: 785 x 870 km, 98.3° (Epoch: 18 October)

Event Time Altitude Azimuth Distance (km) Brightness Sun altitude
Rises 20:31:00 0° 15° (NNE) 3,432 6.1 -28.8°
Reaches altitude 10° 20:33:23 10° 17° (NNE) 2,501 5.3 -29.1°
Enters shadow 20:36:53 40° 28° (NNE) 1,259 3.6 -29.6°
